| time (UTC) | temp F | wind direction | speed knots | gust knots | rain 1hr in | rain 24hr in | rain mn in | humidity % | barometer mb |
| 20260906234850 | 80 | 220 | 2.6 | 0.0 | 0.00 | 0.00 | 0.00 | 23 | 1022.8 |
| 20260906234332 | 81 | 272 | 2.6 | 0.0 | 0.00 | 0.00 | 0.00 | 22 | 1023.1 |
| 20260906233841 | 81 | 271 | 2.6 | 0.0 | 0.00 | 0.00 | 0.00 | 22 | 1023.1 |
| 20260906233351 | 81 | 265 | 2.6 | 0.0 | 0.00 | 0.00 | 0.00 | 23 | 1023.1 |
| 20260906232831 | 80 | 233 | 2.6 | 0.0 | 0.00 | 0.00 | 0.00 | 24 | 1023.1 |
| 20260906232339 | 80 | 229 | 2.6 | 0.0 | 0.00 | 0.00 | 0.00 | 24 | 1023.1 |
| 20260906231843 | 81 | 260 | 3.5 | 0.0 | 0.00 | 0.00 | 0.00 | 23 | 1023.1 |
| 20260906231351 | 81 | 271 | 2.6 | 0.0 | 0.00 | 0.00 | 0.00 | 23 | 1022.8 |
| 20260906230841 | 81 | 247 | 2.6 | 0.0 | 0.00 | 0.00 | 0.00 | 23 | 1022.8 |
| 20260906230343 | 81 | 243 | 2.6 | 0.0 | 0.00 | 0.00 | 0.00 | 23 | 1022.8 |
| 20260906225829 | 81 | 240 | 2.6 | 0.0 | 0.00 | 0.00 | 0.00 | 23 | 1022.9 |
| 20260906225329 | 81 | 241 | 2.6 | 0.0 | 0.00 | 0.00 | 0.00 | 24 | 1022.9 |
| 20260906224859 | 81 | 252 | 3.5 | 0.0 | 0.00 | 0.00 | 0.00 | 23 | 1022.9 |
| 20260906224407 | 82 | 240 | 3.5 | 0.0 | 0.00 | 0.00 | 0.00 | 23 | 1023.4 |
| 20260906223828 | 83 | 235 | 3.5 | 0.0 | 0.00 | 0.00 | 0.00 | 22 | 1023.4 |
| 20260906223337 | 83 | 202 | 3.5 | 0.0 | 0.00 | 0.00 | 0.00 | 22 | 1023.4 |
| 20260906222906 | 82 | 269 | 3.5 | 0.0 | 0.00 | 0.00 | 0.00 | 23 | 1023.1 |
| 20260906222355 | 82 | 278 | 4.3 | 0.0 | 0.00 | 0.00 | 0.00 | 23 | 1023.1 |
| 20260906221838 | 82 | 251 | 4.3 | 0.0 | 0.00 | 0.00 | 0.00 | 22 | 1023.1 |
| 20260906221346 | 82 | 254 | 3.5 | 0.0 | 0.00 | 0.00 | 0.00 | 22 | 1023.2 |
| 20260906220847 | 83 | 270 | 2.6 | 0.0 | 0.00 | 0.00 | 0.00 | 22 | 1023.2 |
| 20260906220356 | 82 | 203 | 2.6 | 0.0 | 0.00 | 0.00 | 0.00 | 22 | 1023.2 |
| 20260906215846 | 82 | 227 | 2.6 | 0.0 | 0.00 | 0.00 | 0.00 | 22 | 1023.8 |
| 20260906215347 | 81 | 233 | 2.6 | 0.0 | 0.00 | 0.00 | 0.00 | 22 | 1023.8 |
| 20260906214831 | 81 | 262 | 3.5 | 0.0 | 0.00 | 0.00 | 0.00 | 23 | 1023.8 |
| 20260906214338 | 81 | 262 | 3.5 | 0.0 | 0.00 | 0.00 | 0.00 | 23 | 1024.0 |
| 20260906213847 | 81 | 229 | 3.5 | 0.0 | 0.00 | 0.00 | 0.00 | 23 | 1024.0 |
| 20260906213330 | 81 | 233 | 3.5 | 0.0 | 0.00 | 0.00 | 0.00 | 23 | 1024.0 |
| 20260906212838 | 81 | 218 | 3.5 | 0.0 | 0.00 | 0.00 | 0.00 | 24 | 1023.7 |
| 20260906212347 | 81 | 187 | 4.3 | 0.0 | 0.00 | 0.00 | 0.00 | 24 | 1023.7 |
| 20260906211830 | 82 | 255 | 4.3 | 0.0 | 0.00 | 0.00 | 0.00 | 23 | 1023.7 |
| 20260906211338 | 82 | 224 | 2.6 | 0.0 | 0.00 | 0.00 | 0.00 | 22 | 1023.7 |
| 20260906210907 | 83 | 222 | 2.6 | 0.0 | 0.00 | 0.00 | 0.00 | 22 | 1023.7 |
| 20260906210331 | 83 | 181 | 3.5 | 0.0 | 0.00 | 0.00 | 0.00 | 22 | 1023.7 |
| 20260906205840 | 83 | 203 | 2.6 | 0.0 | 0.00 | 0.00 | 0.00 | 22 | 1023.6 |
| 20260906205341 | 83 | 200 | 2.6 | 0.0 | 0.00 | 0.00 | 0.00 | 22 | 1023.6 |
| 20260906204844 | 84 | 186 | 3.5 | 0.0 | 0.00 | 0.00 | 0.00 | 22 | 1023.6 |
| 20260906204331 | 84 | 234 | 3.5 | 0.0 | 0.00 | 0.00 | 0.00 | 22 | 1024.2 |
| 20260906203901 | 85 | 207 | 4.3 | 0.0 | 0.00 | 0.00 | 0.00 | 21 | 1024.2 |
| 20260906203348 | 85 | 191 | 3.5 | 0.0 | 0.00 | 0.00 | 0.00 | 21 | 1024.2 |
| 20260906202855 | 85 | 210 | 3.5 | 0.0 | 0.00 | 0.00 | 0.00 | 21 | 1024.2 |
| 20260906202331 | 85 | 168 | 3.5 | 0.0 | 0.00 | 0.00 | 0.00 | 21 | 1024.2 |
| 20260906201839 | 85 | 179 | 2.6 | 0.0 | 0.00 | 0.00 | 0.00 | 22 | 1024.2 |
| 20260906201347 | 85 | 191 | 2.6 | 0.0 | 0.00 | 0.00 | 0.00 | 22 | 1024.0 |
| 20260906200845 | 85 | 250 | 1.7 | 0.0 | 0.00 | 0.00 | 0.00 | 22 | 1024.0 |
| 20260906200331 | 83 | 218 | 2.6 | 0.0 | 0.00 | 0.00 | 0.00 | 22 | 1024.0 |
| 20260906195836 | 81 | 184 | 3.5 | 0.0 | 0.00 | 0.00 | 0.00 | 25 | 1024.5 |
| 20260906195336 | 81 | 251 | 3.5 | 0.0 | 0.00 | 0.00 | 0.00 | 25 | 1024.5 |
| 20260906194836 | 82 | 233 | 4.3 | 0.0 | 0.00 | 0.00 | 0.00 | 23 | 1024.5 |
| 20260906194334 | 83 | 233 | 3.5 | 0.0 | 0.00 | 0.00 | 0.00 | 22 | 1024.9 |
| 20260906193842 | 81 | 195 | 3.5 | 0.0 | 0.00 | 0.00 | 0.00 | 24 | 1024.9 |
| 20260906193331 | 81 | 245 | 3.5 | 0.0 | 0.00 | 0.00 | 0.00 | 24 | 1024.9 |
| 20260906192830 | 82 | 181 | 3.5 | 0.0 | 0.00 | 0.00 | 0.00 | 24 | 1025.0 |
| 20260906192339 | 81 | 167 | 4.3 | 0.0 | 0.00 | 0.00 | 0.00 | 24 | 1025.0 |
| 20260906191847 | 81 | 231 | 4.3 | 0.0 | 0.00 | 0.00 | 0.00 | 24 | 1025.0 |
| 20260906191355 | 81 | 220 | 3.5 | 0.0 | 0.00 | 0.00 | 0.00 | 23 | 1024.7 |
| 20260906190835 | 82 | 248 | 3.5 | 0.0 | 0.00 | 0.00 | 0.00 | 22 | 1024.7 |
| 20260906190343 | 82 | 221 | 3.5 | 0.0 | 0.00 | 0.00 | 0.00 | 24 | 1024.7 |
| 20260906185831 | 82 | 221 | 3.5 | 0.0 | 0.00 | 0.00 | 0.00 | 23 | 1024.8 |
| 20260906185331 | 82 | 200 | 3.5 | 0.0 | 0.00 | 0.00 | 0.00 | 22 | 1024.8 |
| 20260906184832 | 82 | 181 | 2.6 | 0.0 | 0.00 | 0.00 | 0.00 | 22 | 1024.8 |
| 20260906184338 | 82 | 251 | 2.6 | 0.0 | 0.00 | 0.00 | 0.00 | 22 | 1025.7 |
| 20260906183841 | 82 | 190 | 2.6 | 0.0 | 0.00 | 0.00 | 0.00 | 22 | 1025.7 |
| 20260906183349 | 82 | 231 | 2.6 | 0.0 | 0.00 | 0.00 | 0.00 | 23 | 1025.7 |
| 20260906182829 | 82 | 181 | 2.6 | 0.0 | 0.00 | 0.00 | 0.00 | 22 | 1025.2 |
| 20260906182334 | 82 | 210 | 1.7 | 0.0 | 0.00 | 0.00 | 0.00 | 21 | 1025.2 |
| 20260906181841 | 81 | 230 | 2.6 | 0.0 | 0.00 | 0.00 | 0.00 | 23 | 1025.2 |
| 20260906181339 | 80 | 240 | 2.6 | 0.0 | 0.00 | 0.00 | 0.00 | 23 | 1026.0 |
| 20260906180828 | 79 | 184 | 3.5 | 0.0 | 0.00 | 0.00 | 0.00 | 23 | 1026.0 |
| 20260906180339 | 78 | 224 | 3.5 | 0.0 | 0.00 | 0.00 | 0.00 | 24 | 1026.0 |
| 20260906175840 | 79 | 162 | 3.5 | 0.0 | 0.00 | 0.00 | 0.00 | 24 | 1026.0 |
| 20260906175407 | 79 | 226 | 2.6 | 0.0 | 0.00 | 0.00 | 0.00 | 23 | 1026.0 |
| 20260906174828 | 79 | 212 | 2.6 | 0.0 | 0.00 | 0.00 | 0.00 | 23 | 1026.0 |
| 20260906174338 | 79 | 235 | 3.5 | 0.0 | 0.00 | 0.00 | 0.00 | 23 | 1026.4 |
| 20260906173846 | 80 | 205 | 2.6 | 0.0 | 0.00 | 0.00 | 0.00 | 23 | 1026.4 |
| 20260906173354 | 80 | 248 | 3.5 | 0.0 | 0.00 | 0.00 | 0.00 | 22 | 1026.4 |
| 20260906172832 | 80 | 213 | 3.5 | 0.0 | 0.00 | 0.00 | 0.00 | 22 | 1025.8 |
| 20260906172339 | 81 | 195 | 1.7 | 0.0 | 0.00 | 0.00 | 0.00 | 21 | 1025.8 |
| 20260906171833 | 81 | 255 | 0.9 | 0.0 | 0.00 | 0.00 | 0.00 | 21 | 1025.8 |
| 20260906171348 | 81 | 252 | 1.7 | 0.0 | 0.00 | 0.00 | 0.00 | 19 | 1025.9 |
| 20260906170848 | 80 | 188 | 1.7 | 0.0 | 0.00 | 0.00 | 0.00 | 19 | 1025.9 |
| 20260906170335 | 80 | 264 | 1.7 | 0.0 | 0.00 | 0.00 | 0.00 | 19 | 1025.9 |
| 20260906165842 | 79 | 253 | 1.7 | 0.0 | 0.00 | 0.00 | 0.00 | 18 | 1026.3 |
| 20260906165341 | 79 | 234 | 1.7 | 0.0 | 0.00 | 0.00 | 0.00 | 19 | 1026.3 |
| 20260906164909 | 79 | 229 | 1.7 | 0.0 | 0.00 | 0.00 | 0.00 | 19 | 1026.3 |
| 20260906164345 | 79 | 223 | 1.7 | 0.0 | 0.00 | 0.00 | 0.00 | 19 | 1026.6 |
| 20260906163833 | 79 | 232 | 1.7 | 0.0 | 0.00 | 0.00 | 0.00 | 19 | 1026.6 |
| 20260906163338 | 79 | 223 | 2.6 | 0.0 | 0.00 | 0.00 | 0.00 | 18 | 1026.6 |
| 20260906162904 | 78 | 155 | 2.6 | 0.0 | 0.00 | 0.00 | 0.00 | 18 | 1026.1 |
| 20260906162330 | 77 | 223 | 1.7 | 0.0 | 0.00 | 0.00 | 0.00 | 19 | 1026.1 |
| 20260906161853 | 77 | 198 | 1.7 | 0.0 | 0.00 | 0.00 | 0.00 | 18 | 1026.1 |
| 20260906161353 | 76 | 236 | 1.7 | 0.0 | 0.00 | 0.00 | 0.00 | 19 | 1025.9 |
| 20260906160908 | 76 | 207 | 1.7 | 0.0 | 0.00 | 0.00 | 0.00 | 19 | 1025.9 |
| 20260906160345 | 75 | 184 | 0.9 | 0.0 | 0.00 | 0.00 | 0.00 | 20 | 1025.9 |
| 20260906155834 | 75 | 244 | 0.9 | 0.0 | 0.00 | 0.00 | 0.00 | 20 | 1026.9 |
| 20260906155334 | 75 | 232 | 0.9 | 0.0 | 0.00 | 0.00 | 0.00 | 19 | 1026.9 |
| 20260906154844 | 75 | 221 | 0.9 | 0.0 | 0.00 | 0.00 | 0.00 | 18 | 1026.9 |
| 20260906154413 | 75 | 184 | 0.9 | 0.0 | 0.00 | 0.00 | 0.00 | 18 | 1026.1 |
| 20260906153903 | 76 | 180 | 1.7 | 0.0 | 0.00 | 0.00 | 0.00 | 17 | 1026.1 |
| 20260906153349 | 77 | 174 | 0.9 | 0.0 | 0.00 | 0.00 | 0.00 | 18 | 1026.1 |
| 20260906152912 | 76 | 227 | 0.9 | 0.0 | 0.00 | 0.00 | 0.00 | 17 | 1025.8 |
| 20260906152332 | 76 | 181 | 0.9 | 0.0 | 0.00 | 0.00 | 0.00 | 18 | 1025.8 |
| 20260906151839 | 76 | 185 | 0.9 | 0.0 | 0.00 | 0.00 | 0.00 | 18 | 1025.8 |
| 20260906151346 | 75 | 172 | 0.9 | 0.0 | 0.00 | 0.00 | 0.00 | 19 | 1026.6 |
| 20260906150856 | 74 | 174 | 0.9 | 0.0 | 0.00 | 0.00 | 0.00 | 18 | 1026.6 |
| 20260906150336 | 74 | 112 | 0.9 | 0.0 | 0.00 | 0.00 | 0.00 | 18 | 1026.6 |
| 20260906145842 | 74 | 110 | 0.0 | 0.0 | 0.00 | 0.00 | 0.00 | 19 | 1026.0 |
| 20260906145401 | 74 | 110 | 0.0 | 0.0 | 0.00 | 0.00 | 0.00 | 20 | 1026.0 |
| 20260906144846 | 72 | 61 | 0.0 | 0.0 | 0.00 | 0.00 | 0.00 | 20 | 1026.0 |
| 20260906144353 | 71 | 60 | 0.0 | 0.0 | 0.00 | 0.00 | 0.00 | 24 | 1025.7 |
| 20260906143831 | 69 | 61 | 0.0 | 0.0 | 0.00 | 0.00 | 0.00 | 24 | 1025.7 |
| 20260906143338 | 67 | 60 | 0.0 | 0.0 | 0.00 | 0.00 | 0.00 | 27 | 1025.7 |
| 20260906142845 | 66 | 60 | 0.9 | 0.0 | 0.00 | 0.00 | 0.00 | 29 | 1026.3 |
| 20260906142344 | 63 | 61 | 0.9 | 0.0 | 0.00 | 0.00 | 0.00 | 34 | 1026.3 |
| 20260906141830 | 61 | 61 | 0.9 | 0.0 | 0.00 | 0.00 | 0.00 | 36 | 1026.3 |
| 20260906141339 | 61 | 61 | 0.0 | 0.0 | 0.00 | 0.00 | 0.00 | 35 | 1025.8 |
| 20260906140845 | 62 | 61 | 0.0 | 0.0 | 0.00 | 0.00 | 0.00 | 34 | 1025.8 |
| 20260906140354 | 62 | 61 | 0.0 | 0.0 | 0.00 | 0.00 | 0.00 | 32 | 1025.8 |
| 20260906135838 | 62 | 61 | 0.0 | 0.0 | 0.00 | 0.00 | 0.00 | 31 | 1025.8 |
| 20260906135338 | 63 | 61 | 0.0 | 0.0 | 0.00 | 0.00 | 0.00 | 32 | 1025.8 |
| 20260906134845 | 63 | 61 | 0.0 | 0.0 | 0.00 | 0.00 | 0.00 | 32 | 1025.8 |
| 20260906134355 | 62 | 61 | 0.0 | 0.0 | 0.00 | 0.00 | 0.00 | 31 | 1026.1 |
| 20260906133832 | 62 | 61 | 0.0 | 0.0 | 0.00 | 0.00 | 0.00 | 31 | 1026.1 |
| 20260906133340 | 61 | 61 | 0.0 | 0.0 | 0.00 | 0.00 | 0.00 | 30 | 1026.1 |
| 20260906132846 | 61 | 61 | 0.0 | 0.0 | 0.00 | 0.00 | 0.00 | 30 | 1025.9 |
| 20260906132354 | 60 | 61 | 0.0 | 0.0 | 0.00 | 0.00 | 0.00 | 32 | 1025.9 |
| 20260906131830 | 59 | 61 | 0.0 | 0.0 | 0.00 | 0.00 | 0.00 | 31 | 1025.9 |
| 20260906131339 | 58 | 61 | 0.0 | 0.0 | 0.00 | 0.00 | 0.00 | 31 | 1025.5 |
| 20260906130851 | 58 | 61 | 0.9 | 0.0 | 0.00 | 0.00 | 0.00 | 32 | 1025.5 |
| 20260906130355 | 57 | 61 | 1.7 | 0.0 | 0.00 | 0.00 | 0.00 | 34 | 1025.5 |
| 20260906125835 | 56 | 61 | 1.7 | 0.0 | 0.00 | 0.00 | 0.00 | 35 | 1025.8 |
| 20260906125343 | 56 | 65 | 1.7 | 0.0 | 0.00 | 0.00 | 0.00 | 36 | 1025.8 |
| 20260906124912 | 57 | 70 | 1.7 | 0.0 | 0.00 | 0.00 | 0.00 | 35 | 1025.8 |
| 20260906124400 | 57 | 60 | 1.7 | 0.0 | 0.00 | 0.00 | 0.00 | 34 | 1025.5 |
| 20260906123839 | 57 | 67 | 0.9 | 0.0 | 0.00 | 0.00 | 0.00 | 33 | 1025.5 |
| 20260906123416 | 58 | 64 | 1.7 | 0.0 | 0.00 | 0.00 | 0.00 | 33 | 1025.5 |
| 20260906122834 | 58 | 68 | 1.7 | 0.0 | 0.00 | 0.00 | 0.00 | 32 | 1025.4 |
| 20260906122343 | 58 | 48 | 1.7 | 0.0 | 0.00 | 0.00 | 0.00 | 31 | 1025.4 |
| 20260906121853 | 58 | 53 | 1.7 | 0.0 | 0.00 | 0.00 | 0.00 | 32 | 1025.4 |
| 20260906121332 | 58 | 46 | 1.7 | 0.0 | 0.00 | 0.00 | 0.00 | 32 | 1025.0 |
| 20260906120839 | 58 | 67 | 1.7 | 0.0 | 0.00 | 0.00 | 0.00 | 32 | 1025.0 |
| 20260906120340 | 57 | 43 | 1.7 | 0.0 | 0.00 | 0.00 | 0.00 | 32 | 1025.0 |
| 20260906115851 | 57 | 56 | 1.7 | 0.0 | 0.00 | 0.00 | 0.00 | 33 | 1025.0 |
| 20260906115328 | 56 | 59 | 1.7 | 0.0 | 0.00 | 0.00 | 0.00 | 35 | 1025.0 |
| 20260906114838 | 55 | 63 | 1.7 | 0.0 | 0.00 | 0.00 | 0.00 | 36 | 1025.0 |
| 20260906114348 | 55 | 58 | 0.9 | 0.0 | 0.00 | 0.00 | 0.00 | 36 | 1024.6 |
| 20260906113838 | 55 | 59 | 0.9 | 0.0 | 0.00 | 0.00 | 0.00 | 38 | 1024.6 |
| 20260906113339 | 55 | 61 | 0.9 | 0.0 | 0.00 | 0.00 | 0.00 | 39 | 1024.6 |
| 20260906112847 | 54 | 65 | 0.9 | 0.0 | 0.00 | 0.00 | 0.00 | 40 | 1025.1 |
| 20260906112336 | 54 | 54 | 0.9 | 0.0 | 0.00 | 0.00 | 0.00 | 38 | 1025.1 |
| 20260906111839 | 54 | 57 | 0.9 | 0.0 | 0.00 | 0.00 | 0.00 | 39 | 1025.1 |
| 20260906111345 | 55 | 57 | 0.9 | 0.0 | 0.00 | 0.00 | 0.00 | 40 | 1025.3 |
| 20260906110832 | 55 | 68 | 0.0 | 0.0 | 0.00 | 0.00 | 0.00 | 40 | 1025.3 |
| 20260906110338 | 56 | 70 | 0.9 | 0.0 | 0.00 | 0.00 | 0.00 | 38 | 1025.3 |
| 20260906105841 | 57 | 59 | 0.9 | 0.0 | 0.00 | 0.00 | 0.00 | 33 | 1025.2 |
| 20260906105343 | 58 | 62 | 0.9 | 0.0 | 0.00 | 0.00 | 0.00 | 31 | 1025.2 |
| 20260906104852 | 59 | 64 | 0.9 | 0.0 | 0.00 | 0.00 | 0.00 | 30 | 1025.2 |
| 20260906104352 | 59 | 53 | 0.9 | 0.0 | 0.00 | 0.00 | 0.00 | 29 | 1024.8 |
| 20260906103842 | 59 | 60 | 0.9 | 0.0 | 0.00 | 0.00 | 0.00 | 29 | 1024.8 |
| 20260906103332 | 59 | 71 | 1.7 | 0.0 | 0.00 | 0.00 | 0.00 | 29 | 1024.8 |
| 20260906102831 | 58 | 57 | 1.7 | 0.0 | 0.00 | 0.00 | 0.00 | 31 | 1024.8 |
| 20260906102340 | 57 | 57 | 0.9 | 0.0 | 0.00 | 0.00 | 0.00 | 31 | 1024.8 |
| 20260906101851 | 57 | 56 | 0.9 | 0.0 | 0.00 | 0.00 | 0.00 | 32 | 1024.8 |
| 20260906101335 | 58 | 51 | 0.9 | 0.0 | 0.00 | 0.00 | 0.00 | 32 | 1024.8 |
| 20260906100843 | 58 | 60 | 0.9 | 0.0 | 0.00 | 0.00 | 0.00 | 31 | 1024.8 |
| 20260906100352 | 58 | 71 | 0.9 | 0.0 | 0.00 | 0.00 | 0.00 | 31 | 1024.8 |
| 20260906095859 | 58 | 53 | 0.9 | 0.0 | 0.00 | 0.00 | 0.00 | 31 | 1024.7 |
| 20260906095354 | 57 | 56 | 0.9 | 0.0 | 0.00 | 0.00 | 0.00 | 32 | 1024.7 |
| 20260906094843 | 57 | 62 | 1.7 | 0.0 | 0.00 | 0.00 | 0.00 | 33 | 1024.7 |
| 20260906094352 | 57 | 65 | 1.7 | 0.0 | 0.00 | 0.00 | 0.00 | 33 | 1024.8 |
| 20260906093903 | 57 | 58 | 0.9 | 0.0 | 0.00 | 0.00 | 0.00 | 33 | 1024.8 |
| 20260906093341 | 58 | 62 | 0.9 | 0.0 | 0.00 | 0.00 | 0.00 | 31 | 1024.8 |
| 20260906092831 | 58 | 56 | 0.9 | 0.0 | 0.00 | 0.00 | 0.00 | 30 | 1025.1 |
| 20260906092338 | 59 | 60 | 0.9 | 0.0 | 0.00 | 0.00 | 0.00 | 29 | 1025.1 |
| 20260906091840 | 59 | 56 | 1.7 | 0.0 | 0.00 | 0.00 | 0.00 | 29 | 1025.1 |
| 20260906091343 | 59 | 56 | 1.7 | 0.0 | 0.00 | 0.00 | 0.00 | 29 | 1024.8 |
| 20260906090832 | 58 | 47 | 1.7 | 0.0 | 0.00 | 0.00 | 0.00 | 30 | 1024.8 |
| 20260906090340 | 57 | 50 | 0.9 | 0.0 | 0.00 | 0.00 | 0.00 | 31 | 1024.8 |
| 20260906085842 | 57 | 58 | 0.9 | 0.0 | 0.00 | 0.00 | 0.00 | 32 | 1024.7 |
| 20260906085407 | 57 | 58 | 0.9 | 0.0 | 0.00 | 0.00 | 0.00 | 33 | 1024.7 |
| 20260906084827 | 57 | 65 | 0.9 | 0.0 | 0.00 | 0.00 | 0.00 | 33 | 1024.7 |
| 20260906084335 | 57 | 49 | 0.9 | 0.0 | 0.00 | 0.00 | 0.00 | 34 | 1025.3 |
| 20260906083844 | 57 | 64 | 0.9 | 0.0 | 0.00 | 0.00 | 0.00 | 34 | 1025.3 |
| 20260906083354 | 57 | 64 | 0.9 | 0.0 | 0.00 | 0.00 | 0.00 | 34 | 1025.3 |
| 20260906082853 | 56 | 65 | 0.9 | 0.0 | 0.00 | 0.00 | 0.00 | 35 | 1025.4 |
| 20260906082341 | 56 | 53 | 0.9 | 0.0 | 0.00 | 0.00 | 0.00 | 36 | 1025.4 |
| 20260906081850 | 56 | 52 | 0.9 | 0.0 | 0.00 | 0.00 | 0.00 | 36 | 1025.4 |
| 20260906081329 | 57 | 58 | 1.7 | 0.0 | 0.00 | 0.00 | 0.00 | 35 | 1025.0 |
| 20260906080835 | 57 | 65 | 1.7 | 0.0 | 0.00 | 0.00 | 0.00 | 32 | 1025.0 |
| 20260906080347 | 57 | 58 | 0.9 | 0.0 | 0.00 | 0.00 | 0.00 | 32 | 1025.0 |
| 20260906075829 | 57 | 56 | 0.9 | 0.0 | 0.00 | 0.00 | 0.00 | 32 | 1025.7 |
| 20260906075329 | 57 | 56 | 0.9 | 0.0 | 0.00 | 0.00 | 0.00 | 33 | 1025.7 |
| 20260906074835 | 57 | 60 | 1.7 | 0.0 | 0.00 | 0.00 | 0.00 | 33 | 1025.7 |
| 20260906074343 | 57 | 54 | 1.7 | 0.0 | 0.00 | 0.00 | 0.00 | 33 | 1025.7 |
| 20260906073830 | 57 | 56 | 0.9 | 0.0 | 0.00 | 0.00 | 0.00 | 32 | 1025.7 |
| 20260906073353 | 58 | 55 | 1.7 | 0.0 | 0.00 | 0.00 | 0.00 | 32 | 1025.7 |
| 20260906072832 | 58 | 54 | 1.7 | 0.0 | 0.00 | 0.00 | 0.00 | 32 | 1025.6 |
| 20260906072339 | 58 | 56 | 1.7 | 0.0 | 0.00 | 0.00 | 0.00 | 31 | 1025.6 |
| 20260906071830 | 58 | 54 | 2.6 | 0.0 | 0.00 | 0.00 | 0.00 | 31 | 1025.6 |
| 20260906071330 | 58 | 49 | 1.7 | 0.0 | 0.00 | 0.00 | 0.00 | 31 | 1025.4 |
| 20260906070838 | 58 | 47 | 1.7 | 0.0 | 0.00 | 0.00 | 0.00 | 32 | 1025.4 |
| 20260906070345 | 59 | 52 | 1.7 | 0.0 | 0.00 | 0.00 | 0.00 | 32 | 1025.4 |
| 20260906065833 | 58 | 49 | 1.7 | 0.0 | 0.00 | 0.00 | 0.00 | 32 | 1025.3 |
| 20260906065402 | 58 | 46 | 2.6 | 0.0 | 0.00 | 0.00 | 0.00 | 33 | 1025.3 |
| 20260906064851 | 58 | 46 | 1.7 | 0.0 | 0.00 | 0.00 | 0.00 | 34 | 1025.3 |
| 20260906064331 | 58 | 56 | 0.9 | 0.0 | 0.00 | 0.00 | 0.00 | 35 | 1025.4 |
| 20260906063841 | 58 | 54 | 1.7 | 0.0 | 0.00 | 0.00 | 0.00 | 34 | 1025.4 |
| 20260906063410 | 58 | 54 | 2.6 | 0.0 | 0.00 | 0.00 | 0.00 | 32 | 1025.4 |
| 20260906062830 | 59 | 54 | 2.6 | 0.0 | 0.00 | 0.00 | 0.00 | 32 | 1025.7 |
| 20260906062336 | 59 | 43 | 3.5 | 0.0 | 0.00 | 0.00 | 0.00 | 32 | 1025.7 |
| 20260906061907 | 59 | 44 | 3.5 | 0.0 | 0.00 | 0.00 | 0.00 | 32 | 1025.7 |
| 20260906061335 | 58 | 40 | 3.5 | 0.0 | 0.00 | 0.00 | 0.00 | 33 | 1025.6 |
| 20260906060841 | 58 | 46 | 3.5 | 0.0 | 0.00 | 0.00 | 0.00 | 34 | 1025.6 |
| 20260906060330 | 58 | 48 | 2.6 | 0.0 | 0.00 | 0.00 | 0.00 | 34 | 1025.6 |
| 20260906055832 | 58 | 49 | 2.6 | 0.0 | 0.00 | 0.00 | 0.00 | 35 | 1025.9 |
| 20260906055334 | 58 | 49 | 2.6 | 0.0 | 0.00 | 0.00 | 0.00 | 35 | 1025.9 |
| 20260906054845 | 58 | 48 | 2.6 | 0.0 | 0.00 | 0.00 | 0.00 | 35 | 1025.9 |
| 20260906054334 | 58 | 48 | 2.6 | 0.0 | 0.00 | 0.00 | 0.00 | 35 | 1026.0 |
| 20260906053833 | 58 | 47 | 1.7 | 0.0 | 0.00 | 0.00 | 0.00 | 36 | 1026.0 |
| 20260906053343 | 58 | 47 | 2.6 | 0.0 | 0.00 | 0.00 | 0.00 | 35 | 1026.0 |
| 20260906052834 | 58 | 47 | 2.6 | 0.0 | 0.00 | 0.00 | 0.00 | 35 | 1025.9 |
| 20260906052333 | 59 | 47 | 3.5 | 0.0 | 0.00 | 0.00 | 0.00 | 35 | 1025.9 |
| 20260906051842 | 58 | 46 | 3.5 | 0.0 | 0.00 | 0.00 | 0.00 | 35 | 1025.9 |
| 20260906051348 | 58 | 46 | 2.6 | 0.0 | 0.00 | 0.00 | 0.00 | 35 | 1025.5 |
| 20260906050830 | 58 | 46 | 2.6 | 0.0 | 0.00 | 0.00 | 0.00 | 35 | 1025.5 |
| 20260906050340 | 58 | 46 | 2.6 | 0.0 | 0.00 | 0.00 | 0.00 | 35 | 1025.5 |
| 20260906045851 | 58 | 46 | 2.6 | 0.0 | 0.00 | 0.00 | 0.00 | 35 | 1025.5 |
| 20260906045352 | 58 | 44 | 3.5 | 0.0 | 0.00 | 0.00 | 0.00 | 36 | 1025.5 |
| 20260906044834 | 58 | 42 | 3.5 | 0.0 | 0.00 | 0.00 | 0.00 | 36 | 1025.5 |
| 20260906044341 | 58 | 48 | 2.6 | 0.0 | 0.00 | 0.00 | 0.00 | 36 | 1025.5 |
| 20260906043851 | 58 | 53 | 2.6 | 0.0 | 0.00 | 0.00 | 0.00 | 36 | 1025.5 |
| 20260906043332 | 58 | 53 | 2.6 | 0.0 | 0.00 | 0.00 | 0.00 | 36 | 1025.5 |
| 20260906042841 | 58 | 53 | 3.5 | 0.0 | 0.00 | 0.00 | 0.00 | 36 | 1025.5 |
| 20260906042350 | 58 | 70 | 2.6 | 0.0 | 0.00 | 0.00 | 0.00 | 35 | 1025.5 |
| 20260906041829 | 58 | 72 | 2.6 | 0.0 | 0.00 | 0.00 | 0.00 | 35 | 1025.5 |
| 20260906041338 | 58 | 75 | 2.6 | 0.0 | 0.00 | 0.00 | 0.00 | 35 | 1025.9 |
| 20260906040848 | 58 | 75 | 1.7 | 0.0 | 0.00 | 0.00 | 0.00 | 35 | 1025.9 |
| 20260906040356 | 58 | 76 | 0.9 | 0.0 | 0.00 | 0.00 | 0.00 | 36 | 1025.9 |
| 20260906035836 | 59 | 82 | 1.7 | 0.0 | 0.00 | 0.00 | 0.00 | 35 | 1025.7 |
| 20260906035334 | 59 | 82 | 2.6 | 0.0 | 0.00 | 0.00 | 0.00 | 34 | 1025.7 |
| 20260906034840 | 59 | 82 | 2.6 | 0.0 | 0.00 | 0.00 | 0.00 | 34 | 1025.7 |
| 20260906034350 | 59 | 82 | 2.6 | 0.0 | 0.00 | 0.00 | 0.00 | 34 | 1025.2 |
| 20260906033832 | 60 | 82 | 2.6 | 0.0 | 0.00 | 0.00 | 0.00 | 33 | 1025.2 |
| 20260906033342 | 60 | 82 | 2.6 | 0.0 | 0.00 | 0.00 | 0.00 | 33 | 1025.2 |
| 20260906032852 | 60 | 82 | 1.7 | 0.0 | 0.00 | 0.00 | 0.00 | 33 | 1025.1 |
| 20260906032333 | 61 | 136 | 0.9 | 0.0 | 0.00 | 0.00 | 0.00 | 32 | 1025.1 |
| 20260906031849 | 61 | 149 | 0.0 | 0.0 | 0.00 | 0.00 | 0.00 | 31 | 1025.1 |
| 20260906031350 | 61 | 207 | 0.0 | 0.0 | 0.00 | 0.00 | 0.00 | 31 | 1024.9 |
| 20260906030907 | 61 | 207 | 0.0 | 0.0 | 0.00 | 0.00 | 0.00 | 31 | 1024.9 |
| 20260906030416 | 62 | 207 | 0.0 | 0.0 | 0.00 | 0.00 | 0.00 | 30 | 1024.9 |
| 20260906025836 | 62 | 207 | 0.0 | 0.0 | 0.00 | 0.00 | 0.00 | 29 | 1025.1 |
| 20260906025339 | 63 | 207 | 0.0 | 0.0 | 0.00 | 0.00 | 0.00 | 27 | 1025.1 |
| 20260906024845 | 64 | 207 | 0.0 | 0.0 | 0.00 | 0.00 | 0.00 | 27 | 1025.1 |
| 20260906024329 | 65 | 207 | 0.0 | 0.0 | 0.00 | 0.00 | 0.00 | 27 | 1024.8 |
| 20260906023838 | 65 | 207 | 0.0 | 0.0 | 0.00 | 0.00 | 0.00 | 27 | 1024.8 |
| 20260906023349 | 65 | 207 | 0.0 | 0.0 | 0.00 | 0.00 | 0.00 | 26 | 1024.8 |
| 20260906022833 | 65 | 214 | 0.0 | 0.0 | 0.00 | 0.00 | 0.00 | 26 | 1025.1 |
| 20260906022341 | 66 | 215 | 0.0 | 0.0 | 0.00 | 0.00 | 0.00 | 26 | 1025.1 |
| 20260906021852 | 66 | 215 | 0.0 | 0.0 | 0.00 | 0.00 | 0.00 | 25 | 1025.1 |
| 20260906021333 | 68 | 215 | 0.0 | 0.0 | 0.00 | 0.00 | 0.00 | 24 | 1024.4 |
| 20260906020844 | 69 | 215 | 0.0 | 0.0 | 0.00 | 0.00 | 0.00 | 23 | 1024.4 |
| 20260906020355 | 70 | 215 | 0.0 | 0.0 | 0.00 | 0.00 | 0.00 | 22 | 1024.4 |
| 20260906015833 | 71 | 215 | 0.0 | 0.0 | 0.00 | 0.00 | 0.00 | 22 | 1024.7 |
| 20260906015334 | 71 | 215 | 0.0 | 0.0 | 0.00 | 0.00 | 0.00 | 21 | 1024.7 |
| 20260906014844 | 72 | 215 | 0.0 | 0.0 | 0.00 | 0.00 | 0.00 | 21 | 1024.7 |
| 20260906014354 | 73 | 215 | 0.0 | 0.0 | 0.00 | 0.00 | 0.00 | 21 | 1025.0 |
| 20260906013836 | 73 | 215 | 0.0 | 0.0 | 0.00 | 0.00 | 0.00 | 20 | 1025.0 |
| 20260906013344 | 74 | 215 | 0.0 | 0.0 | 0.00 | 0.00 | 0.00 | 20 | 1025.0 |
| 20260906012834 | 74 | 214 | 0.9 | 0.0 | 0.00 | 0.00 | 0.00 | 19 | 1025.0 |
| 20260906012338 | 75 | 212 | 0.9 | 0.0 | 0.00 | 0.00 | 0.00 | 19 | 1025.0 |
| 20260906011910 | 75 | 245 | 0.9 | 0.0 | 0.00 | 0.00 | 0.00 | 19 | 1025.0 |
| 20260906011329 | 75 | 224 | 1.7 | 0.0 | 0.00 | 0.00 | 0.00 | 19 | 1025.0 |
| 20260906010839 | 76 | 234 | 1.7 | 0.0 | 0.00 | 0.00 | 0.00 | 18 | 1025.0 |
| 20260906010349 | 76 | 233 | 1.7 | 0.0 | 0.00 | 0.00 | 0.00 | 18 | 1025.0 |
| 20260906005915 | 77 | 229 | 2.6 | 0.0 | 0.00 | 0.00 | 0.00 | 17 | 1024.5 |
| 20260906005355 | 77 | 248 | 2.6 | 0.0 | 0.00 | 0.00 | 0.00 | 16 | 1024.5 |
| 20260906004857 | 78 | 252 | 1.7 | 0.0 | 0.00 | 0.00 | 0.00 | 16 | 1024.5 |
| 20260906004353 | 78 | 254 | 0.9 | 0.0 | 0.00 | 0.00 | 0.00 | 15 | 1024.5 |
| 20260906003835 | 78 | 252 | 1.7 | 0.0 | 0.00 | 0.00 | 0.00 | 15 | 1024.5 |
| 20260906003342 | 78 | 248 | 2.6 | 0.0 | 0.00 | 0.00 | 0.00 | 15 | 1024.5 |
| 20260906002851 | 77 | 214 | 2.6 | 0.0 | 0.00 | 0.00 | 0.00 | 16 | 1024.7 |
| 20260906002333 | 78 | 240 | 2.6 | 0.0 | 0.00 | 0.00 | 0.00 | 16 | 1024.7 |
| 20260906001841 | 79 | 218 | 3.5 | 0.0 | 0.00 | 0.00 | 0.00 | 16 | 1024.7 |
| 20260906001338 | 79 | 188 | 3.5 | 0.0 | 0.00 | 0.00 | 0.00 | 16 | 1024.8 |
| 20260906000844 | 79 | 221 | 3.5 | 0.0 | 0.00 | 0.00 | 0.00 | 16 | 1024.8 |
| 20260906000355 | 79 | 217 | 3.5 | 0.0 | 0.00 | 0.00 | 0.00 | 16 | 1024.8 |
| 20260905235841 | 79 | 211 | 3.5 | 0.0 | 0.00 | 0.00 | 0.00 | 15 | 1025.1 |
| 20260905235359 | 79 | 235 | 3.5 | 0.0 | 0.00 | 0.00 | 0.00 | 15 | 1025.1 |